Flag Weather past 2 weeks in Mühlacker, Baden-Württemberg, Germany

Now
41 °F

Overcast.


Feels Like: 38 °F
Forecast: 37 / 47 °F
Wind: 5 mph from Southeast

Location: Stuttgart-Echterdingen

Current Time: Nov 26, 2014 at 4:27:48 AM

Latest Report: Nov 26, 2014 at 3:50 AM


Visibility: N/A

Pressure: 30.04 "Hg

Humidity: 87%

Dew point: 37 °F

Location of MühlackerLocation

Historic Weather in Mühlacker — Graph

°F

Mühlacker temperature yesterday

Maximum temperature yesterday: 48 °F (at 12:20 PM)
Minimum temperature yesterday: 43 °F (at 9:50 PM)
Average temperature yesterday: 46 °F

Past Weeks' High & Low Weather Summary

 TemperatureHumidityPressure
High57 °F (Nov 22, 2:20 PM)100% (Nov 11, 3:20 AM)30.30 "Hg (Nov 11, 3:20 AM)
Low34 °F (Nov 20, 2:50 AM)63% (Nov 16, 3:20 PM)29.53 "Hg (Nov 15, 10:20 PM)
Average45 °F91%29.93 "Hg
* Reported Nov 11 3:20 AM — Nov 26 3:20 AM, Mühlacker, Weather by CustomWeather, © 2014

Note: Actual official high and low records may vary slightly from our data, if they occured in-between our weather recording intervals... More about our weather records

Advertising

Mühlacker weather history for previous 24 hours

 ConditionsComfort  
Time TempWeatherWind HumidityBarometerVisibility
3:20 AM
Nov 26
41 °FOvercast.6 mph87%30.04 "HgN/A
2:50 AM41 °FOvercast.7 mph87%30.07 "HgN/A
2:20 AM41 °FOvercast.6 mph87%30.07 "HgN/A
1:50 AM41 °FOvercast.8 mph87%30.07 "HgN/A
1:20 AM43 °FOvercast.6 mph81%30.07 "HgN/A
12:50 AM43 °FOvercast.6 mph81%30.09 "HgN/A
12:20 AM43 °FOvercast.6 mph87%30.09 "HgN/A
11:50 PM
Nov 25
43 °FOvercast.7 mph87%30.09 "HgN/A
11:20 PM43 °FOvercast.7 mph87%30.09 "HgN/A
10:50 PM43 °FOvercast.9 mph87%30.09 "HgN/A
10:20 PM43 °FOvercast.8 mph87%30.09 "HgN/A
9:50 PM43 °FOvercast.8 mph87%30.09 "HgN/A
9:20 PM45 °FOvercast.12 mph81%30.09 "HgN/A
8:50 PM45 °FOvercast.12 mph81%30.09 "HgN/A
8:20 PM45 °FOvercast.10 mph87%30.12 "HgN/A
7:50 PM45 °FOvercast.9 mph87%30.12 "HgN/A
7:20 PM45 °FOvercast.9 mph87%30.12 "HgN/A
6:50 PM45 °FOvercast.9 mph87%30.12 "HgN/A
6:20 PM45 °FPassing clouds.9 mph87%30.12 "HgN/A
5:50 PM45 °FPassing clouds.10 mph87%30.12 "HgN/A
5:20 PM45 °FPassing clouds.10 mph87%30.12 "HgN/A
4:50 PM46 °FPassing clouds.10 mph82%30.12 "HgN/A
4:20 PM46 °FPartly sunny.8 mph82%30.12 "HgN/A
3:50 PM46 °FPartly sunny.9 mph87%30.12 "HgN/A
3:20 PM46 °FPartly sunny.10 mph87%30.12 "HgN/A
2:50 PM46 °FPartly sunny.9 mph87%30.15 "HgN/A
2:20 PM46 °FPartly sunny.10 mph87%30.15 "HgN/A
1:50 PM46 °FPartly sunny.9 mph87%30.15 "HgN/A
1:20 PM48 °FPartly sunny.10 mph82%30.15 "HgN/A
12:50 PM46 °FBroken clouds.12 mph87%30.15 "HgN/A
12:20 PM48 °FPartly sunny.10 mph82%30.18 "HgN/A
11:50 AM46 °FPartly sunny.10 mph87%30.18 "HgN/A
11:20 AM46 °FPartly sunny.9 mph87%30.18 "HgN/A
10:50 AM46 °FPartly sunny.10 mph87%30.21 "HgN/A
10:20 AM46 °FBroken clouds.7 mph87%30.21 "HgN/A
9:50 AM46 °FPartly sunny.7 mph87%30.21 "HgN/A
9:20 AM46 °FPartly sunny.8 mph87%30.21 "HgN/A
8:50 AM46 °FPartly sunny.7 mph87%30.21 "HgN/A
8:20 AM46 °FPartly sunny.7 mph87%30.21 "HgN/A
7:50 AM46 °FBroken clouds.7 mph87%30.21 "HgN/A
7:20 AM46 °FPartly cloudy.5 mph87%30.21 "HgN/A
6:50 AM46 °FPartly cloudy.7 mph87%30.21 "HgN/A
6:20 AM46 °FPassing clouds.5 mph87%30.21 "HgN/A
5:50 AM46 °FPassing clouds.6 mph87%30.21 "HgN/A
4:50 AM46 °FPartly cloudy.6 mph87%30.24 "HgN/A
4:20 AM46 °FPartly cloudy.6 mph87%30.24 "HgN/A
Weather by CustomWeather, © 2014

See weather overviewHow to use our weather pages